• In Hungary
  • List of Countries
  • For 7 days
  • Water Temperature
  • Satellite Maps
  • Weather Map
  • News
  • Weather Widgets
  • user-avatar
    Login

    Hourly Weather Kingston

    Today, 13 December, Wednesday

    Time Temperature Precipitation Wind Pressure Humidity
    00:00 +21°C° 0.5 mm 2 mps 706 mmHg 92%
    01:00 +21°C° 0 mm 2 mps 705 mmHg 93%
    02:00 +21°C° 0.5 mm 2 mps 705 mmHg 93%
    03:00 +21°C° 0.5 mm 2 mps 705 mmHg 93%
    04:00 +21°C° 0.5 mm 3 mps 705 mmHg 93%
    05:00 +21°C° 0.9 mm 3 mps 705 mmHg 93%
    06:00 +21°C° 0.9 mm 3 mps 706 mmHg 93%
    07:00 +21°C° 0 mm 3 mps 706 mmHg 92%
    08:00 +21°C° 0.8 mm 3 mps 707 mmHg 90%
    09:00 +22°C° 0.8 mm 3 mps 707 mmHg 87%
    10:00 +22°C° 0.8 mm 3 mps 707 mmHg 85%
    11:00 +22°C° 0.9 mm 3 mps 707 mmHg 84%
    12:00 +24°C° 0.9 mm 3 mps 707 mmHg 84%
    13:00 +24°C° 0.9 mm 3 mps 706 mmHg 83%
    14:00 +24°C° 1 mm 3 mps 706 mmHg 84%
    15:00 +22°C° 1 mm 3 mps 706 mmHg 84%
    16:00 +22°C° 1 mm 3 mps 706 mmHg 85%
    17:00 +22°C° 1 mm 3 mps 706 mmHg 87%
    18:00 +21°C° 1 mm 3 mps 706 mmHg 88%
    19:00 +21°C° 1 mm 3 mps 706 mmHg 90%
    20:00 +21°C° 0.7 mm 3 mps 706 mmHg 91%
    21:00 +21°C° 0.7 mm 3 mps 707 mmHg 92%
    22:00 +21°C° 0.7 mm 3 mps 707 mmHg 93%
    23:00 +21°C° 0.6 mm 3 mps 706 mmHg 93%

    Tomorrow, 14 December, Thursday

    Time Temperature Precipitation Wind Pressure Humidity
    00:00 +21°C° 0.6 mm 3 mps 706 mmHg 93%
    01:00 +21°C° 0.6 mm 3 mps 706 mmHg 93%
    02:00 +21°C° 0.9 mm 4 mps 706 mmHg 93%
    03:00 +21°C° 0.9 mm 4 mps 706 mmHg 93%
    04:00 +21°C° 0.9 mm 4 mps 706 mmHg 93%
    05:00 +21°C° 0.6 mm 4 mps 706 mmHg 93%
    06:00 +21°C° 0.6 mm 4 mps 706 mmHg 93%
    07:00 +21°C° 0.6 mm 4 mps 706 mmHg 93%
    08:00 +22°C° 0.4 mm 4 mps 707 mmHg 89%
    09:00 +23°C° 0.4 mm 4 mps 707 mmHg 85%
    10:00 +25°C° 0.4 mm 4 mps 707 mmHg 80%
    11:00 +25°C° 0.4 mm 4 mps 707 mmHg 79%
    12:00 +26°C° 0.4 mm 4 mps 707 mmHg 78%
    13:00 +26°C° 0.4 mm 4 mps 707 mmHg 77%
    14:00 +26°C° 0.3 mm 4 mps 706 mmHg 77%
    15:00 +26°C° 0.3 mm 4 mps 706 mmHg 77%
    16:00 +25°C° 0.3 mm 4 mps 706 mmHg 78%
    17:00 +23°C° 0.1 mm 4 mps 706 mmHg 82%
    18:00 +22°C° 0.1 mm 3 mps 706 mmHg 87%
    19:00 +21°C° 0.1 mm 3 mps 706 mmHg 91%
    20:00 +21°C° 0 mm 3 mps 707 mmHg 92%
    21:00 +21°C° 0 mm 3 mps 707 mmHg 93%
    22:00 +21°C° 0 mm 3 mps 707 mmHg 94%
    23:00 +21°C° 0 mm 3 mps 707 mmHg 94%

    Day after tomorrow, 15 December, Friday

    Time Temperature Precipitation Wind Pressure Humidity
    00:00 +20°C° 0 mm 3 mps 707 mmHg 94%
    01:00 +20°C° 0 mm 3 mps 706 mmHg 94%
    02:00 +20°C° 0 mm 3 mps 706 mmHg 95%
    03:00 +20°C° 0 mm 3 mps 706 mmHg 95%
    04:00 +20°C° 0 mm 3 mps 706 mmHg 95%
    05:00 +20°C° 0 mm 3 mps 706 mmHg 94%
    06:00 +20°C° 0 mm 3 mps 706 mmHg 94%
    07:00 +20°C° 0 mm 4 mps 707 mmHg 93%
    08:00 +22°C° 0 mm 4 mps 707 mmHg 86%
    09:00 +23°C° 0 mm 4 mps 708 mmHg 80%
    10:00 +26°C° 0 mm 4 mps 708 mmHg 73%
    11:00 +27°C° 0 mm 4 mps 708 mmHg 68%
    12:00 +28°C° 0 mm 4 mps 708 mmHg 64%
    13:00 +29°C° 0 mm 5 mps 707 mmHg 59%
    14:00 +28°C° 0 mm 4 mps 707 mmHg 62%
    15:00 +27°C° 0 mm 4 mps 706 mmHg 66%
    16:00 +27°C° 0 mm 4 mps 706 mmHg 69%
    17:00 +25°C° 0 mm 4 mps 706 mmHg 76%
    18:00 +24°C° 0 mm 3 mps 707 mmHg 83%
    19:00 +21°C° 0 mm 3 mps 707 mmHg 91%
    20:00 +21°C° 0.1 mm 3 mps 707 mmHg 91%
    21:00 +21°C° 0.1 mm 3 mps 707 mmHg 92%
    22:00 +21°C° 0.1 mm 3 mps 708 mmHg 92%
    23:00 +21°C° 0 mm 3 mps 708 mmHg 93%

    16 December, Saturday

    Time Temperature Precipitation Wind Pressure Humidity
    00:00 +21°C° 0 mm 3 mps 707 mmHg 93%
    01:00 +20°C° 0 mm 3 mps 707 mmHg 94%
    02:00 +20°C° 0 mm 3 mps 707 mmHg 94%
    03:00 +20°C° 0 mm 3 mps 707 mmHg 94%
    04:00 +20°C° 0 mm 3 mps 707 mmHg 95%
    05:00 +20°C° 0 mm 3 mps 707 mmHg 95%
    06:00 +20°C° 0 mm 3 mps 707 mmHg 95%
    07:00 +20°C° 0 mm 3 mps 708 mmHg 94%
    08:00 +22°C° 0.1 mm 3 mps 708 mmHg 88%
    09:00 +25°C° 0.1 mm 4 mps 709 mmHg 81%
    10:00 +26°C° 0.1 mm 4 mps 709 mmHg 74%
    11:00 +27°C° 0.1 mm 4 mps 709 mmHg 71%
    12:00 +27°C° 0.1 mm 4 mps 708 mmHg 69%
    13:00 +28°C° 0.1 mm 4 mps 708 mmHg 66%
    14:00 +28°C° 0.1 mm 4 mps 708 mmHg 68%
    15:00 +27°C° 0.1 mm 4 mps 707 mmHg 70%
    16:00 +27°C° 0.1 mm 4 mps 707 mmHg 72%
    17:00 +25°C° 0 mm 4 mps 707 mmHg 78%
    18:00 +23°C° 0 mm 4 mps 707 mmHg 85%
    19:00 +22°C° 0 mm 4 mps 707 mmHg 91%
    20:00 +21°C° 0 mm 4 mps 707 mmHg 92%
    21:00 +21°C° 0 mm 4 mps 708 mmHg 93%
    22:00 +21°C° 0 mm 4 mps 708 mmHg 93%
    23:00 +21°C° 0 mm 4 mps 708 mmHg 94%

    17 December, Sunday

    Time Temperature Precipitation Wind Pressure Humidity
    00:00 +21°C° 0 mm 4 mps 708 mmHg 94%
    01:00 +21°C° 0 mm 4 mps 707 mmHg 95%
    02:00 +21°C° 0.1 mm 5 mps 707 mmHg 94%
    03:00 +21°C° 0.1 mm 5 mps 707 mmHg 94%
    04:00 +21°C° 0.1 mm 5 mps 707 mmHg 93%
    05:00 +21°C° 0.1 mm 5 mps 708 mmHg 92%
    06:00 +22°C° 0.1 mm 5 mps 708 mmHg 91%
    07:00 +22°C° 0.1 mm 5 mps 708 mmHg 90%
    08:00 +23°C° 0.1 mm 5 mps 709 mmHg 86%
    09:00 +25°C° 0.1 mm 5 mps 709 mmHg 81%
    10:00 +26°C° 0.1 mm 6 mps 710 mmHg 76%
    11:00 +27°C° 0 mm 5 mps 709 mmHg 71%
    12:00 +28°C° 0 mm 5 mps 709 mmHg 66%
    13:00 +28°C° 0 mm 5 mps 708 mmHg 61%
    14:00 +28°C° 0.1 mm 5 mps 708 mmHg 64%
    15:00 +28°C° 0.1 mm 5 mps 707 mmHg 66%
    16:00 +27°C° 0.1 mm 5 mps 707 mmHg 68%
    17:00 +26°C° 0.1 mm 5 mps 707 mmHg 75%
    18:00 +25°C° 0.1 mm 5 mps 707 mmHg 82%
    19:00 +22°C° 0.1 mm 5 mps 707 mmHg 89%
    20:00 +22°C° 0.1 mm 5 mps 708 mmHg 90%
    21:00 +22°C° 0.1 mm 5 mps 708 mmHg 91%
    22:00 +22°C° 0.1 mm 5 mps 708 mmHg 93%
    23:00 +22°C° 0.2 mm 5 mps 708 mmHg 92%

    18 December, Monday

    Time Temperature Precipitation Wind Pressure Humidity
    00:00 +22°C° 0.2 mm 5 mps 707 mmHg 92%
    01:00 +22°C° 0.2 mm 5 mps 707 mmHg 92%
    02:00 +22°C° 0.2 mm 5 mps 707 mmHg 92%
    03:00 +22°C° 0.2 mm 5 mps 707 mmHg 91%
    04:00 +22°C° 0.2 mm 5 mps 706 mmHg 91%
    05:00 +22°C° 0.1 mm 5 mps 707 mmHg 91%
    06:00 +22°C° 0.1 mm 5 mps 707 mmHg 91%
    07:00 +22°C° 0.1 mm 5 mps 707 mmHg 91%
    08:00 +23°C° 0.1 mm 5 mps 708 mmHg 85%
    09:00 +25°C° 0.1 mm 5 mps 708 mmHg 78%
    10:00 +27°C° 0.1 mm 5 mps 709 mmHg 71%
    11:00 +27°C° 0 mm 5 mps 708 mmHg 67%
    12:00 +28°C° 0 mm 5 mps 708 mmHg 62%
    13:00 +29°C° 0 mm 5 mps 708 mmHg 58%
    14:00 +28°C° 0 mm 5 mps 707 mmHg 60%
    15:00 +28°C° 0 mm 5 mps 707 mmHg 61%
    16:00 +28°C° 0 mm 5 mps 707 mmHg 63%
    17:00 +26°C° 0 mm 4 mps 707 mmHg 71%
    18:00 +23°C° 0 mm 4 mps 707 mmHg 79%
    19:00 +22°C° 0 mm 4 mps 707 mmHg 87%
    20:00 +21°C° 0 mm 4 mps 707 mmHg 89%
    21:00 +21°C° 0 mm 4 mps 707 mmHg 91%
    22:00 +21°C° 0 mm 4 mps 707 mmHg 93%
    23:00 +21°C° 0 mm 4 mps 707 mmHg 94%
    Show more